カタログに戻る

FENGYUN 1C DEB

運用中SSO
NORAD 41830·DEBRIS·🇨🇳 China

打ち上げ May 10, 1999 から Taiyuan Satellite Launch Center

Loading…

次のパス (今後24時間)

TLE

最新Source: Space-Track

元期: Sep 13, 2026, 17:36 UTC

1 41830U 99025EYH 26256.73386938  .00002178  00000-0  87737-3 0  9992
2 41830  98.7380 333.8062 0054240 136.5931 223.9541 14.28259097511977

AllMySatでFENGYUN 1C DEBをリアルタイム追跡

Download on the App Store